Location: Salillas
(41.9950°N, 0.2228°W)
Time: 20:28:59
(UTC+00:00)

STARLINK-1110 - Pass Details

Date: 29 March 2020
Orbit: 548 x 551 km, 53.0° (Epoch: 31 May)

Event Time Altitude Azimuth Distance (km) Brightness Sun altitude
Rises 19:15:11 0° 309° (NW) 2,682 8.5 -10.3°
Reaches altitude 10° 19:17:30 10° 317° (NW) 1,791 7.2 -10.7°
Maximum altitude 19:21:22 41° 29° (NNE) 788 4.3 -11.4°
Enters shadow 19:24:06 17° 93° (E) 1,388 5.0 -11.8°
